DW5522 Weather Reports


time (UTC)temp
C
wind
direction
speed
KPH
gust
KPH
rain 1hr
cm
rain 24hr
cm
rain mn
cm
humidity
%
barometer
mb
20260506051303 8 28 4.8 8.0 0.10 1.30 1.30 95 1005.1
20260506051214 8 355 3.2 9.7 0.10 1.30 1.30 95 1005.1
20260506051211 8 355 3.2 9.7 0.10 1.45 1.45 93 4.8
20260506051004 8 11 3.2 6.4 0.10 1.30 1.30 95 1005.1
20260506050902 8 26 4.8 6.4 0.10 1.30 1.30 95 1005.1
20260506050802 8 43 4.8 6.4 0.10 1.30 1.30 95 1005.1
20260506050702 8 14 3.2 6.4 0.08 1.27 1.27 95 1005.1
20260506050603 8 349 4.8 6.4 0.08 1.27 1.27 95 1005.1
20260506050503 8 349 3.2 6.4 0.08 1.27 1.27 95 1005.1
20260506050215 8 351 3.2 4.8 0.08 1.27 1.27 95 1005.1
20260506050213 8 11 4.8 9.7 0.08 1.27 1.27 95 1005.1
20260506050211 8 11 3.2 8.0 0.10 1.45 1.45 94 4.8
20260506050203 8 351 3.2 4.8 0.08 1.27 1.27 95 1005.1
20260506045004 8 9 1.6 6.4 0.08 1.24 1.24 95 1005.1
20260506044902 8 337 4.8 6.4 0.08 1.24 1.24 95 1005.1
20260506044803 8 360 0.0 6.4 0.08 1.24 1.24 95 1005.1
20260506044603 8 5 3.2 8.0 0.10 1.24 1.24 95 1005.1
20260506044504 8 344 3.2 8.0 0.10 1.24 1.24 95 1005.1
20260506044403 8 355 4.8 8.0 0.08 1.22 1.22 95 1005.1
20260506044302 8 37 3.2 8.0 0.08 1.22 1.22 95 1005.1
20260506044211 8 355 4.8 8.0 0.10 1.40 1.40 94 4.9
20260506044103 8 346 3.2 6.4 0.08 1.22 1.22 95 1005.1
20260506043703 8 5 3.2 6.4 0.08 1.22 1.22 95 1005.1
20260506043603 8 17 3.2 4.8 0.10 1.22 1.22 95 1005.1
20260506043403 8 342 1.6 4.8 0.10 1.22 1.22 95 1005.1
20260506043302 8 339 4.8 4.8 0.10 1.22 1.22 95 1005.1
20260506043211 8 338 3.2 6.4 0.08 1.22 1.22 95 1005.1
20260506043203 8 338 3.2 6.4 0.08 1.22 1.22 95 1005.1
20260506043004 8 334 3.2 6.4 0.08 1.22 1.22 95 1005.1
20260506042903 8 333 4.8 6.4 0.08 1.22 1.22 95 1005.1
20260506042703 8 360 1.6 6.4 0.10 1.22 1.22 95 1005.1
20260506042506 8 5 3.2 6.4 0.10 1.22 1.22 95 1005.1
20260506042403 8 9 3.2 6.4 0.10 1.22 1.22 95 1005.1
20260506042211 8 31 3.2 6.4 0.10 1.22 1.22 95 1005.1
20260506042203 8 348 3.2 6.4 0.10 1.22 1.22 95 1005.1
20260506042104 8 350 1.6 6.4 0.10 1.22 1.22 95 1005.1
20260506042004 8 350 4.8 6.4 0.13 1.22 1.22 95 1005.1
20260506041903 8 351 4.8 6.4 0.13 1.22 1.22 95 1005.1
20260506041602 8 350 3.2 6.4 0.10 1.19 1.19 95 1005.1
20260506041505 8 350 4.8 6.4 0.10 1.19 1.19 95 1005.1
20260506041404 8 349 4.8 6.4 0.13 1.19 1.19 95 1005.1
20260506041302 8 339 3.2 6.4 0.13 1.19 1.19 95 1005.1
20260506041211 8 339 4.8 8.0 0.13 1.19 1.19 95 1005.1
20260506041203 8 335 4.8 6.4 0.13 1.19 1.19 95 1005.1
20260506041005 8 327 4.8 8.0 0.13 1.19 1.19 95 1005.1
20260506040902 8 339 3.2 8.0 0.13 1.19 1.19 95 1005.1
20260506040803 8 339 4.8 8.0 0.13 1.19 1.19 95 1005.1
20260506040703 8 339 6.4 8.0 0.13 1.19 1.19 95 1005.1
20260506040602 8 336 3.2 8.0 0.13 1.19 1.19 95 1005.2
20260506040505 8 315 3.2 8.0 0.13 1.19 1.19 95 1005.2
20260506040211 8 336 3.2 11.3 0.13 1.19 1.19 95 1005.1
20260506040005 8 355 8.0 11.3 0.13 1.17 1.17 95 1005.2
20260506035903 8 338 3.2 11.3 0.13 1.17 1.17 95 1005.1
20260506035802 8 351 4.8 9.7 0.13 1.17 1.17 95 1005.2
20260506035704 8 351 3.2 9.7 0.13 1.17 1.17 95 1005.2
20260506035603 8 344 6.4 9.7 0.13 1.17 1.17 95 1005.2
20260506035504 8 339 6.4 9.7 0.13 1.17 1.17 95 1005.2
20260506035402 8 346 3.2 9.7 0.13 1.17 1.17 95 1005.2
20260506035211 8 335 3.2 8.0 0.13 1.17 1.17 95 1005.2
20260506035202 8 335 4.8 4.8 0.13 1.17 1.17 95 1005.2
20260506035102 8 331 3.2 6.4 0.13 1.17 1.17 95 1005.1
20260506035003 8 327 3.2 6.4 0.13 1.17 1.17 95 1005.1
20260506034802 8 338 4.8 6.4 0.13 1.14 1.14 95 1005.1
20260506034702 8 338 1.6 6.4 0.13 1.14 1.14 95 1005.1
20260506034504 8 340 4.8 9.7 0.13 1.14 1.14 95 1005.2
20260506034405 8 338 1.6 9.7 0.13 1.14 1.14 95 1005.2
20260506034303 8 334 3.2 9.7 0.13 1.14 1.14 95 1005.2
20260506034211 8 341 4.8 9.7 0.13 1.14 1.14 95 1005.2
20260506034004 8 335 3.2 8.0 0.13 1.14 1.14 95 1005.2
20260506033903 8 317 4.8 8.0 0.13 1.14 1.14 95 1005.1
20260506033803 8 10 4.8 8.0 0.13 1.14 1.14 95 1005.2
20260506033603 8 335 3.2 12.9 0.13 1.14 1.14 95 1005.2
20260506033503 8 335 4.8 12.9 0.13 1.14 1.14 95 1005.2
20260506033303 8 328 6.4 12.9 0.13 1.14 1.14 95 1005.2
20260506033202 8 323 3.2 12.9 0.13 1.14 1.14 95 1005.2
20260506033006 8 325 3.2 8.0 0.13 1.14 1.14 95 1005.2
20260506032902 8 318 4.8 8.0 0.13 1.14 1.14 95 1005.2
20260506032802 8 17 4.8 8.0 0.13 1.14 1.14 95 1005.2
20260506032702 8 337 4.8 6.4 0.13 1.12 1.12 95 1005.2
20260506032603 8 348 1.6 6.4 0.13 1.12 1.12 95 1005.3
20260506032403 8 340 3.2 6.4 0.13 1.12 1.12 95 1005.3
20260506032305 8 37 3.2 8.0 0.13 1.12 1.12 95 1005.2
20260506032211 8 37 3.2 8.0 0.13 1.27 1.27 93 5.0
20260506032102 8 24 3.2 8.0 0.13 1.12 1.12 95 1005.2
20260506032004 8 28 3.2 8.0 0.10 1.09 1.09 95 1005.2
20260506031903 8 28 1.6 11.3 0.10 1.09 1.09 95 1005.3
20260506031803 8 355 3.2 11.3 0.10 1.09 1.09 95 1005.2
20260506031702 8 355 3.2 11.3 0.13 1.09 1.09 95 1005.3
20260506031505 8 15 3.2 11.3 0.13 1.09 1.09 95 1005.2
20260506031302 8 11 3.2 8.0 0.10 1.07 1.07 95 1005.3
20260506031211 8 355 4.8 11.3 0.13 1.19 1.19 93 5.0
20260506031003 8 24 0.0 11.3 0.10 1.07 1.07 95 1005.3
20260506030803 8 360 4.8 11.3 0.10 1.04 1.04 95 1005.3
20260506030504 8 333 4.8 9.7 0.10 1.04 1.04 95 1005.3
20260506030303 8 5 6.4 9.7 0.10 1.04 1.04 95 1005.4
20260506030211 8 5 4.8 9.7 0.10 1.04 1.04 95 1005.4
20260506030103 8 13 4.8 8.0 0.13 1.04 1.04 95 1005.4
20260506025903 8 360 4.8 8.0 0.13 1.04 1.04 95 1005.4
20260506025802 8 350 4.8 8.0 0.10 1.04 1.04 95 1005.4
20260506025603 8 22 4.8 12.9 0.10 1.04 1.04 95 1005.4
20260506025503 8 5 3.2 12.9 0.10 1.04 1.04 95 1005.5
20260506025305 8 5 4.8 12.9 0.10 1.04 1.04 95 1005.5
20260506025202 8 9 3.2 12.9 0.10 1.04 1.04 95 1005.5
20260506025103 8 17 4.8 12.9 0.13 1.04 1.04 95 1005.5
20260506024903 8 5 3.2 8.0 0.13 1.04 1.04 95 1005.5
20260506024803 8 34 4.8 8.0 0.13 1.04 1.04 95 1005.6
20260506024702 8 24 4.8 8.0 0.13 1.04 1.04 95 1005.5
20260506024603 8 355 3.2 8.0 0.13 1.04 1.04 95 1005.6
20260506024503 8 30 3.2 6.4 0.13 1.04 1.04 95 1005.5
20260506024403 8 11 3.2 4.8 0.13 1.04 1.04 95 1005.5
20260506024302 8 355 3.2 4.8 0.13 1.04 1.04 95 1005.6
20260506024210 8 355 3.2 4.8 0.13 1.04 1.04 95 1005.6
20260506024203 9 12 1.6 4.8 0.13 1.04 1.04 95 1005.5
20260506024103 8 360 1.6 6.4 0.13 1.04 1.04 95 1005.5
20260506024005 9 360 3.2 6.4 0.13 1.02 1.02 95 1005.5
20260506023904 8 360 3.2 6.4 0.13 1.02 1.02 95 1005.6
20260506023702 9 360 3.2 6.4 0.13 1.02 1.02 95 1005.6
20260506023602 9 323 3.2 6.4 0.13 1.02 1.02 95 1005.6
20260506023403 9 349 3.2 6.4 0.13 1.02 1.02 95 1005.6
20260506023210 9 337 3.2 6.4 0.13 1.02 1.02 95 1005.7
20260506023202 9 343 3.2 6.4 0.13 1.02 1.02 95 1005.6
20260506023103 9 19 3.2 6.4 0.13 1.02 1.02 95 1005.7
20260506023004 9 19 1.6 6.4 0.13 1.02 1.02 95 1005.7
20260506022902 9 19 3.2 6.4 0.13 1.02 1.02 95 1005.7
20260506022702 9 19 3.2 6.4 0.13 0.99 0.99 95 1005.7
20260506022506 9 18 3.2 8.0 0.13 0.99 0.99 95 1005.7
20260506022402 9 19 4.8 8.0 0.13 0.99 0.99 95 1005.7
20260506022305 9 25 4.8 8.0 0.13 0.99 0.99 95 1005.7
20260506022211 9 25 3.2 6.4 0.13 0.99 0.99 95 1005.7
20260506022203 9 28 1.6 8.0 0.13 0.99 0.99 95 1005.7
20260506022103 9 314 3.2 4.8 0.13 0.99 0.99 95 1005.8
20260506021803 9 314 3.2 4.8 0.15 0.99 0.99 95 1005.7
20260506021702 9 314 3.2 8.0 0.13 0.97 0.97 95 1005.7
20260506021602 9 314 4.8 8.0 0.13 0.97 0.97 95 1005.7
20260506021403 9 313 4.8 8.0 0.13 0.97 0.97 95 1005.8
20260506021304 9 313 3.2 8.0 0.13 0.97 0.97 95 1005.7
20260506021211 9 313 4.8 6.4 0.13 0.97 0.97 95 1005.7
20260506021103 9 316 3.2 6.4 0.15 0.97 0.97 95 1005.7
20260506020904 9 339 3.2 6.4 0.13 0.97 0.97 95 1005.7
20260506020703 9 347 3.2 4.8 0.13 0.97 0.97 95 1005.7
20260506020603 9 360 0.0 4.8 0.13 0.97 0.97 95 1005.7
20260506020402 9 346 3.2 4.8 0.15 0.97 0.97 95 1005.7
20260506020302 9 346 1.6 4.8 0.15 0.97 0.97 95 1005.8
20260506020212 9 346 3.2 4.8 0.15 1.07 1.07 93 5.5
20260506020210 9 346 3.2 4.8 0.15 0.97 0.97 95 1005.8
20260506020204 9 346 3.2 4.8 0.15 0.97 0.97 95 1005.8
20260506020005 9 346 3.2 6.4 0.13 0.94 0.94 95 1005.7
20260506015903 9 349 1.6 6.4 0.13 0.94 0.94 95 1005.8
20260506015702 9 43 3.2 8.0 0.15 0.94 0.94 95 1005.8
20260506015603 9 43 1.6 8.0 0.15 0.94 0.94 95 1005.7
20260506015503 9 360 3.2 8.0 0.15 0.94 0.94 95 1005.8
20260506015212 9 360 4.8 8.0 0.18 1.04 1.04 93 5.5
20260506015210 9 360 4.8 8.0 0.15 0.94 0.94 95 1005.8
20260506015202 9 5 3.2 8.0 0.18 0.94 0.94 95 1005.8
20260506015102 9 5 4.8 8.0 0.15 0.91 0.91 95 1005.7
20260506015003 9 5 3.2 8.0 0.15 0.91 0.91 95 1005.7
20260506014904 9 5 3.2 4.8 0.15 0.91 0.91 95 1005.8
20260506014702 9 5 3.2 11.3 0.18 0.91 0.91 95 1005.8
20260506014603 9 5 3.2 11.3 0.18 0.91 0.91 95 1005.7
20260506014503 9 5 4.8 11.3 0.18 0.91 0.91 95 1005.7
20260506014302 9 5 4.8 11.3 0.15 0.89 0.89 95 1005.8
20260506014212 9 5 6.4 11.3 0.20 1.02 1.02 93 5.5
20260506014203 9 24 3.2 9.7 0.18 0.89 0.89 95 1005.8
20260506013903 9 27 8.0 9.7 0.18 0.89 0.89 95 1005.8
20260506013803 9 44 3.2 9.7 0.18 0.89 0.89 95 1005.8
20260506013702 9 26 3.2 6.4 0.18 0.89 0.89 95 1005.8
20260506013603 9 27 3.2 6.4 0.18 0.89 0.89 95 1005.8
20260506013504 9 32 4.8 6.4 0.20 0.89 0.89 95 1005.8
20260506013404 9 36 3.2 6.4 0.18 0.89 0.89 95 1005.8
20260506013302 9 38 3.2 6.4 0.18 0.89 0.89 95 1005.8
20260506013212 9 38 3.2 6.4 0.20 1.02 1.02 93 5.6
20260506013210 9 38 3.2 6.4 0.18 0.89 0.89 95 1005.8
20260506013202 9 360 3.2 4.8 0.18 0.89 0.89 95 1005.9
20260506013103 9 360 3.2 6.4 0.18 0.89 0.89 95 1005.9
20260506013005 9 347 3.2 6.4 0.18 0.89 0.89 95 1005.9
20260506012903 9 346 3.2 6.4 0.18 0.89 0.89 95 1005.9
20260506012802 9 24 4.8 6.4 0.18 0.89 0.89 95 1005.9
20260506012703 9 24 3.2 6.4 0.15 0.86 0.86 95 1005.9
20260506012504 9 22 3.2 6.4 0.18 0.86 0.86 95 1005.9
20260506012403 9 27 1.6 6.4 0.18 0.86 0.86 95 1005.9
20260506012212 9 31 1.6 6.4 0.18 0.97 0.97 93 5.6
20260506012210 9 31 1.6 6.4 0.18 0.86 0.86 95 1005.8
20260506012203 9 31 3.2 6.4 0.18 0.86 0.86 95 1005.9
20260506012103 9 360 3.2 6.4 0.18 0.86 0.86 95 1005.9
20260506012004 9 355 4.8 6.4 0.15 0.84 0.84 95 1005.9
20260506011902 9 355 3.2 6.4 0.15 0.84 0.84 95 1005.9
20260506011802 9 24 1.6 4.8 0.15 0.84 0.84 95 1005.9
20260506011703 9 24 1.6 9.7 0.18 0.84 0.84 95 1005.9
20260506011602 9 24 3.2 9.7 0.18 0.84 0.84 95 1005.9
20260506011505 9 24 1.6 9.7 0.18 0.84 0.84 95 1005.9
20260506011302 9 45 3.2 9.7 0.18 0.84 0.84 95 1005.9
20260506011212 9 45 4.8 9.7 0.20 0.94 0.94 93 5.6
20260506011210 9 45 4.8 9.7 0.18 0.84 0.84 95 1005.9
20260506011103 9 31 3.2 9.7 0.15 0.81 0.81 95 1005.9
20260506010803 9 360 4.8 9.7 0.18 0.81 0.81 95 1005.9
20260506010703 9 25 6.4 9.7 0.18 0.81 0.81 95 1005.9
20260506010602 9 316 4.8 9.7 0.18 0.81 0.81 95 1005.9
20260506010505 9 329 3.2 6.4 0.18 0.81 0.81 95 1005.9
20260506010302 9 31 0.0 4.8 0.15 0.79 0.79 95 1005.9
20260506010210 9 31 3.2 4.8 0.15 0.79 0.79 95 1005.9
20260506010103 9 31 1.6 12.9 0.18 0.79 0.79 95 1005.9
20260506010005 9 35 3.2 12.9 0.18 0.79 0.79 95 1005.9
20260506005802 9 36 8.0 12.9 0.15 0.79 0.79 95 1006.0
20260506005702 9 25 6.4 9.7 0.15 0.79 0.79 95 1006.0
20260506005403 9 360 4.8 9.7 0.15 0.79 0.79 95 1006.0
20260506005305 9 355 3.2 9.7 0.15 0.79 0.79 95 1006.0
20260506005203 9 5 4.8 6.4 0.15 0.76 0.76 95 1006.1
20260506005103 9 360 1.6 8.0 0.15 0.76 0.76 95 1006.1
20260506005005 9 11 3.2 8.0 0.15 0.76 0.76 95 1006.1
20260506004902 9 10 3.2 8.0 0.15 0.76 0.76 95 1006.1
20260506004803 9 355 4.8 8.0 0.13 0.74 0.74 95 1006.1
20260506004604 9 11 4.8 8.0 0.13 0.74 0.74 95 1006.1
20260506004403 9 355 4.8 8.0 0.13 0.74 0.74 95 1006.1
20260506004303 9 19 3.2 8.0 0.15 0.74 0.74 95 1006.1
20260506004213 9 18 4.8 8.0 0.15 0.84 0.84 93 5.8
20260506004210 9 19 4.8 8.0 0.15 0.74 0.74 95 1006.1
20260506004203 9 24 3.2 6.4 0.13 0.71 0.71 95 1006.1
20260506004102 9 24 4.8 6.4 0.13 0.71 0.71 95 1006.2
20260506004002 9 26 3.2 6.4 0.13 0.71 0.71 95 1006.1
20260506003903 9 19 3.2 4.8 0.13 0.71 0.71 95 1006.1
20260506003803 9 19 1.6 4.8 0.15 0.71 0.71 95 1006.2
20260506003504 9 19 4.8 6.4 0.13 0.71 0.71 95 1006.2
20260506003404 9 19 3.2 6.4 0.13 0.71 0.71 95 1006.2
20260506003303 9 19 3.2 6.4 0.15 0.71 0.71 95 1006.2
20260506003203 9 19 4.8 6.4 0.15 0.71 0.71 95 1006.2
20260506003005 9 20 4.8 6.4 0.15 0.71 0.71 95 1006.2
20260506002902 9 19 3.2 6.4 0.15 0.71 0.71 95 1006.2
20260506002803 9 30 3.2 6.4 0.18 0.71 0.71 95 1006.2
20260506002703 9 28 3.2 6.4 0.18 0.71 0.71 95 1006.2
20260506002403 9 16 4.8 6.4 0.18 0.69 0.69 95 1006.3
20260506002306 9 5 4.8 9.7 0.18 0.69 0.69 95 1006.3
20260506002203 9 40 4.8 9.7 0.18 0.69 0.69 95 1006.3
20260506002004 9 360 6.4 9.7 0.20 0.69 0.69 95 1006.3
20260506001903 9 30 3.2 9.7 0.20 0.69 0.69 95 1006.3
20260506001802 9 23 6.4 9.7 0.20 0.69 0.69 95 1006.3
20260506001702 9 32 4.8 9.7 0.20 0.66 0.66 95 1006.3
20260506001504 9 30 3.2 9.7 0.20 0.66 0.66 95 1006.3
20260506001402 9 13 4.8 6.4 0.20 0.66 0.66 95 1006.3
20260506001302 9 46 4.8 6.4 0.20 0.66 0.66 95 1006.3
20260506001202 9 355 3.2 8.0 0.20 0.66 0.66 95 1006.4
20260506001102 9 5 3.2 8.0 0.20 0.66 0.66 95 1006.4
20260506000903 10 350 4.8 8.0 0.20 0.64 0.64 95 1006.4
20260506000702 10 350 3.2 8.0 0.20 0.64 0.64 95 1006.4
20260506000602 10 339 3.2 8.0 0.23 0.64 0.64 95 1006.4
20260506000503 10 338 4.8 8.0 0.23 0.64 0.64 95 1006.4
20260506000402 10 5 3.2 8.0 0.23 0.64 0.64 95 1006.4
20260506000213 10 13 3.2 8.0 0.30 0.74 0.74 93 6.2
20260506000211 10 13 3.2 8.0 0.25 0.64 0.64 95 1006.4
20260506000004 10 17 4.8 8.0 0.25 0.64 0.64 95 1006.4
20260505235903 10 18 3.2 9.7 0.28 0.64 0.64 95 1006.4
20260505235603 10 29 6.4 9.7 0.30 0.64 0.64 95 1006.5
20260505235504 10 31 3.2 9.7 0.30 0.64 0.64 95 1006.5
20260505235305 10 26 4.8 8.0 0.36 0.64 0.64 95 1006.5
20260505235213 9 26 4.8 8.0 0.41 0.71 0.71 93 6.2
20260505235211 10 26 4.8 8.0 0.33 0.64 0.64 95 1006.5
20260505235004 10 21 4.8 12.9 0.38 0.61 0.61 95 1006.5
20260505234803 10 16 6.4 12.9 0.38 0.61 0.61 95 1006.5
20260505234603 10 25 6.4 12.9 0.41 0.61 0.61 95 1006.6
20260505234504 10 360 4.8 11.3 0.41 0.61 0.61 95 1006.5
20260505234403 10 9 3.2 11.3 0.43 0.61 0.61 95 1006.6
20260505234302 10 19 6.4 11.3 0.41 0.58 0.58 95 1006.6
20260505234213 9 19 3.2 11.3 0.48 0.66 0.66 93 6.3
20260505234210 10 19 3.2 9.7 0.41 0.58 0.58 95 1006.6
20260505234203 10 22 6.4 11.3 0.41 0.58 0.58 95 1006.6
20260505234103 10 30 6.4 11.3 0.43 0.58 0.58 95 1006.6
20260505234003 10 13 4.8 16.1 0.43 0.58 0.58 95 1006.6
20260505233903 10 21 6.4 16.1 0.46 0.58 0.58 95 1006.6
20260505233802 10 32 6.4 16.1 0.43 0.56 0.56 95 1006.7
20260505233603 10 23 4.8 16.1 0.43 0.56 0.56 95 1006.6
20260505233504 10 32 1.6 11.3 0.43 0.56 0.56 95 1006.6
20260505233402 10 39 4.8 11.3 0.43 0.56 0.56 95 1006.6
20260505233302 10 41 4.8 11.3 0.43 0.53 0.53 95 1006.6
20260505233213 9 41 4.8 11.3 0.48 0.64 0.64 93 6.4
20260505233210 10 41 4.8 11.3 0.43 0.53 0.53 95 1006.6
20260505233004 10 26 8.0 9.7 0.43 0.53 0.53 95 1006.7
20260505232903 10 18 6.4 9.7 0.43 0.53 0.53 95 1006.7
20260505232802 10 15 4.8 8.0 0.41 0.53 0.53 95 1006.7
20260505232702 10 41 3.2 8.0 0.43 0.53 0.53 95 1006.7
20260505232603 10 42 4.8 8.0 0.43 0.53 0.53 95 1006.7
20260505232504 10 346 4.8 6.4 0.43 0.53 0.53 95 1006.7
20260505232403 10 37 3.2 6.4 0.41 0.51 0.51 95 1006.7
20260505232305 10 34 4.8 6.4 0.41 0.51 0.51 95 1006.7
20260505232213 9 34 3.2 6.4 0.48 0.58 0.58 93 6.4
20260505232210 10 34 3.2 6.4 0.41 0.51 0.51 95 1006.7
20260505232005 10 36 1.6 6.4 0.41 0.48 0.48 95 1006.7
20260505231904 10 26 1.6 6.4 0.41 0.48 0.48 95 1006.7
20260505231802 10 26 4.8 9.7 0.41 0.48 0.48 95 1006.7
20260505231703 10 28 3.2 9.7 0.41 0.46 0.46 95 1006.7
20260505231403 10 15 3.2 14.5 0.41 0.46 0.46 95 1006.7
20260505231303 10 32 6.4 14.5 0.38 0.46 0.46 95 1006.7
20260505231213 9 32 4.8 14.5 0.48 0.53 0.53 93 6.5
20260505231210 10 32 4.8 14.5 0.38 0.46 0.46 95 1006.7
20260505231102 10 21 4.8 14.5 0.41 0.46 0.46 95 1006.7
20260505231004 10 10 4.8 8.0 0.43 0.46 0.46 95 1006.7
20260505230903 10 30 4.8 12.9 0.41 0.43 0.43 95 1006.8
20260505230803 10 42 4.8 12.9 0.41 0.43 0.43 95 1006.7
20260505230702 10 5 1.6 12.9 0.41 0.43 0.43 95 1006.7
20260505230503 10 16 6.4 12.9 0.41 0.41 0.41 95 1006.8
20260505230402 10 27 3.2 12.9 0.41 0.41 0.41 95 1006.8
20260505230303 10 33 6.4 12.9 0.38 0.38 0.38 95 1006.7
20260505230213 9 22 6.4 12.9 0.41 0.41 0.41 93 6.5
20260505230210 10 35 3.2 12.9 0.38 0.38 0.38 95 1006.7
20260505230202 10 27 6.4 12.9 0.38 0.38 0.38 95 1006.7
20260505230006 10 33 8.0 12.9 0.38 0.38 0.38 95 1006.8
20260505225802 10 22 6.4 14.5 0.36 0.36 0.36 95 1006.8
20260505225702 10 42 8.0 14.5 0.33 0.33 0.33 95 1006.8
20260505225603 10 5 6.4 14.5 0.33 0.33 0.33 95 1006.8
20260505225504 10 32 3.2 14.5 0.30 0.30 0.30 95 1006.8
20260505225403 10 29 3.2 9.7 0.30 0.30 0.30 95 1006.8
20260505225305 10 23 0.0 6.4 0.28 0.28 0.28 95 1006.8
20260505225211 10 23 3.2 6.4 0.28 0.28 0.28 95 1006.8
20260505225202 10 23 1.6 6.4 0.28 0.28 0.28 95 1006.8
20260505225103 10 23 4.8 6.4 0.25 0.25 0.25 95 1006.8
20260505224903 10 23 3.2 11.3 0.23 0.23 0.23 95 1006.8
20260505224703 10 23 4.8 11.3 0.20 0.20 0.20 95 1006.8
20260505224603 10 22 4.8 11.3 0.20 0.20 0.20 95 1006.9
20260505224503 10 20 3.2 11.3 0.20 0.20 0.20 95 1006.9
20260505224403 10 20 4.8 8.0 0.18 0.18 0.18 95 1006.9
20260505224203 10 20 3.2 8.0 0.18 0.18 0.18 95 1006.9
20260505224102 10 20 4.8 8.0 0.15 0.15 0.15 95 1006.9
20260505224003 10 20 3.2 12.9 0.15 0.15 0.15 95 1006.9
20260505223904 10 15 3.2 12.9 0.13 0.13 0.13 95 1006.9
20260505223703 10 5 6.4 12.9 0.13 0.13 0.13 95 1006.8
20260505223602 10 50 1.6 12.9 0.13 0.13 0.13 95 1006.9
20260505223402 10 18 3.2 8.0 0.13 0.13 0.13 95 1006.8
20260505223303 10 18 4.8 8.0 0.13 0.13 0.13 95 1006.9
20260505223210 10 18 3.2 8.0 0.13 0.13 0.13 95 1006.9
20260505223202 10 26 4.8 8.0 0.13 0.13 0.13 95 1006.8
20260505223103 10 25 3.2 8.0 0.13 0.13 0.13 95 1006.8
20260505223005 10 26 3.2 6.4 0.13 0.13 0.13 95 1006.9
20260505222903 10 22 3.2 6.4 0.13 0.13 0.13 95 1006.9
20260505222803 10 29 6.4 6.4 0.13 0.13 0.13 95 1006.9
20260505222702 10 59 1.6 6.4 0.10 0.10 0.10 95 1006.9
20260505222603 10 34 1.6 12.9 0.10 0.10 0.10 95 1006.9
20260505222504 10 34 3.2 12.9 0.10 0.10 0.10 95 1006.9
20260505222403 10 34 3.2 14.5 0.10 0.10 0.10 95 1006.9
20260505222305 10 34 11.3 14.5 0.10 0.10 0.10 95 1006.9
20260505222211 10 34 4.8 14.5 0.10 0.10 0.10 95 1006.9
20260505222203 10 37 6.4 14.5 0.08 0.08 0.08 95 1006.9
20260505222102 10 350 9.7 14.5 0.08 0.08 0.08 95 1006.9
20260505222004 10 344 6.4 14.5 0.08 0.08 0.08 95 1006.9
20260505221903 10 37 4.8 12.9 0.08 0.08 0.08 95 1006.9
20260505221805 10 28 6.4 16.1 0.08 0.08 0.08 95 1006.9
20260505221706 10 34 3.2 16.1 0.05 0.05 0.05 95 1006.8
20260505221504 10 23 8.0 16.1 0.05 0.05 0.05 95 1006.9
20260505221404 10 5 6.4 16.1 0.05 0.05 0.05 95 1006.9
20260505221215 10 360 3.2 8.0 0.05 0.05 0.05 95 1006.9
20260505221210 10 25 6.4 12.9 0.05 0.05 0.05 93 6.6
20260505220813 10 22 4.8 11.3 0.03 0.03 0.03 95 1006.9
20260505220607 10 22 4.8 12.9 0.00 0.00 0.00 95 1006.9
20260505220210 10 14 6.4 14.5 0.00 0.00 0.00 93 6.7
20260505215913 10 35 1.6 11.3 0.10 0.18 0.18 95 1006.9
20260505215517 10 16 4.8 12.9 0.08 0.15 0.15 95 1007.0
20260505215211 10 26 3.2 12.9 0.08 0.15 0.15 95 1007.0
20260505214507 10 5 4.8 11.3 0.08 0.13 0.13 95 1007.0
20260505214307 10 5 6.4 11.3 0.08 0.13 0.13 95 1007.0
20260505214113 10 38 6.4 12.9 0.08 0.13 0.13 95 1007.1
20260505213712 10 22 4.8 17.7 0.05 0.13 0.13 95 1007.0
20260505213412 10 22 3.2 16.1 0.05 0.13 0.13 95 1007.1
20260505213304 10 44 4.8 16.1 0.05 0.13 0.13 95 1007.1
20260505213211 10 40 4.8 16.1 0.05 0.13 0.13 95 1007.1
20260505212603 10 32 4.8 11.3 0.05 0.13 0.13 95 1007.1
20260505212307 10 22 6.4 9.7 0.05 0.10 0.10 95 1007.1
20260505212211 10 48 6.4 8.0 0.05 0.10 0.10 95 1007.1
20260505212102 10 19 3.2 8.0 0.05 0.10 0.10 95 1007.1
20260505211802 10 28 1.6 8.0 0.05 0.10 0.10 94 1007.2
20260505211519 10 19 3.2 12.9 0.05 0.10 0.10 94 1007.2
20260505211317 10 22 6.4 12.9 0.05 0.10 0.10 94 1007.2
20260505211210 10 360 6.4 16.1 0.05 0.10 0.10 92 6.9
20260505211103 10 18 6.4 11.3 0.05 0.10 0.10 94 1007.1
20260505210803 10 39 0.0 12.9 0.05 0.10 0.10 94 1007.1
20260505210712 10 342 6.4 12.9 0.05 0.10 0.10 94 1007.2
20260505210211 10 23 4.8 12.9 0.03 0.08 0.08 94 1007.2
20260505205904 10 32 1.6 12.9 0.05 0.08 0.08 94 1007.3
20260505204606 10 32 4.8 12.9 0.03 0.05 0.05 94 1007.3
20260505204211 10 22 8.0 14.5 0.03 0.05 0.05 95 1007.3
20260505203604 10 24 0.0 8.0 0.03 0.05 0.05 94 1007.3
20260505203505 10 45 4.8 8.0 0.03 0.05 0.05 94 1007.3
20260505203210 10 38 4.8 11.3 0.03 0.05 0.05 92 7.0
20260505203109 10 27 0.0 11.3 0.03 0.05 0.05 94 1007.3
20260505202903 10 25 6.4 11.3 0.03 0.05 0.05 94 1007.3
20260505202807 10 25 4.8 11.3 0.03 0.05 0.05 94 1007.3
20260505202707 10 13 6.4 11.3 0.03 0.05 0.05 94 1007.3
20260505202217 10 355 4.8 9.7 0.03 0.05 0.05 94 1007.3
20260505202212 10 355 4.8 11.3 0.03 0.05 0.05 94 1007.3
20260505202210 10 355 4.8 8.0 0.03 0.05 0.05 94 1007.3
20260505202103 10 46 3.2 9.7 0.03 0.05 0.05 94 1007.3
20260505202033 10 11 6.4 9.7 0.03 0.05 0.05 94 1007.2
20260505201804 10 30 4.8 9.7 0.03 0.05 0.05 94 1007.3
20260505201702 10 28 1.6 9.7 0.03 0.05 0.05 94 1007.2
20260505201404 10 18 3.2 8.0 0.03 0.05 0.05 94 1007.2
20260505201303 10 29 6.4 9.7 0.03 0.05 0.05 94 1007.3
20260505201212 10 17 1.6 8.0 0.03 0.05 0.05 94 1007.2
20260505201210 10 17 3.2 8.0 0.03 0.05 0.05 92 7.0
20260505201005 10 49 4.8 9.7 0.03 0.05 0.05 94 1007.3
20260505200808 10 9 6.4 9.7 0.03 0.05 0.05 94 1007.2
20260505200508 10 18 4.8 11.3 0.03 0.05 0.05 94 1007.2
20260505200307 10 35 6.4 11.3 0.03 0.05 0.05 94 1007.2
20260505200212 10 32 4.8 11.3 0.03 0.05 0.05 94 1007.2
20260505200210 10 35 4.8 11.3 0.03 0.05 0.05 94 1007.2
20260505200018 10 34 6.4 11.3 0.00 0.05 0.05 94 1007.2
20260505195803 10 36 8.0 14.5 0.00 0.05 0.05 94 1007.2
20260505195708 10 17 0.0 14.5 0.00 0.05 0.05 94 1007.2
20260505195403 10 24 3.2 14.5 0.00 0.05 0.05 94 1007.2
20260505195212 10 30 4.8 12.9 0.00 0.05 0.05 94 1007.2
20260505195210 10 30 3.2 12.9 0.00 0.05 0.05 92 7.0
20260505195202 10 31 4.8 9.7 0.00 0.05 0.05 94 1007.2
20260505194703 10 42 3.2 9.7 0.00 0.05 0.05 94 1007.2
20260505194505 10 35 1.6 9.7 0.00 0.05 0.05 94 1007.2
20260505194303 10 18 4.8 11.3 0.00 0.05 0.05 94 1007.2
20260505194211 10 26 3.2 11.3 0.00 0.05 0.05 94 1007.2
20260505194103 10 26 4.8 11.3 0.00 0.05 0.05 94 1007.2
20260505193903 10 5 6.4 11.3 0.00 0.05 0.05 94 1007.2
20260505193704 10 28 4.8 8.0 0.00 0.05 0.05 94 1007.2
20260505193504 10 5 6.4 9.7 0.00 0.05 0.05 94 1007.2
20260505193304 10 5 3.2 12.9 0.00 0.05 0.05 94 1007.2
20260505193211 10 5 6.4 12.9 0.00 0.05 0.05 94 1007.2
20260505193103 10 15 4.8 12.9 0.00 0.05 0.05 94 1007.1
20260505192903 10 28 6.4 12.9 0.00 0.05 0.05 93 1007.2
20260505192703 10 18 4.8 12.9 0.00 0.05 0.05 93 1007.1
20260505192504 10 18 4.8 6.4 0.00 0.05 0.05 93 1007.1
20260505192305 10 340 3.2 4.8 0.00 0.05 0.05 93 1007.1
20260505192212 10 340 1.6 6.4 0.00 0.05 0.05 93 1007.2
20260505192210 10 340 1.6 8.0 0.00 0.05 0.05 91 6.9
20260505192103 10 37 0.0 6.4 0.00 0.05 0.05 93 1007.1
20260505191803 10 37 3.2 6.4 0.00 0.05 0.05 93 1007.1
20260505191603 10 24 4.8 4.8 0.00 0.05 0.05 93 1007.1
20260505191302 10 22 3.2 6.4 0.00 0.05 0.05 93 1007.1
20260505191212 10 22 3.2 9.7 0.00 0.05 0.05 93 1007.1
20260505191210 10 22 3.2 9.7 0.00 0.05 0.05 91 6.9
20260505191202 10 355 4.8 8.0 0.00 0.05 0.05 93 1007.1
20260505191004 10 34 6.4 9.7 0.00 0.05 0.05 93 1007.1
20260505190702 10 35 8.0 9.7 0.00 0.05 0.05 93 1007.1
20260505190503 10 5 4.8 11.3 0.00 0.05 0.05 93 1007.1
20260505190302 10 20 6.4 11.3 0.00 0.05 0.05 93 1007.1
20260505190212 10 21 4.8 11.3 0.00 0.05 0.05 93 1007.1
20260505190210 10 22 6.4 11.3 0.00 0.05 0.05 93 1007.1
20260505190203 10 19 4.8 11.3 0.00 0.05 0.05 93 1007.1
20260505190005 10 15 0.0 8.0 0.00 0.05 0.05 93 1007.0
20260505185903 10 22 4.8 8.0 0.00 0.05 0.05 93 1007.0
20260505185602 10 31 4.8 8.0 0.00 0.05 0.05 93 1007.1
20260505185402 10 32 3.2 8.0 0.00 0.05 0.05 93 1007.0
20260505185203 10 5 1.6 4.8 0.00 0.05 0.05 93 1007.0
20260505184902 10 5 1.6 6.4 0.00 0.05 0.05 93 1007.0
20260505184802 10 34 0.0 8.0 0.00 0.05 0.05 93 1007.0
20260505184604 10 32 4.8 12.9 0.00 0.05 0.05 93 1007.0
20260505184402 10 49 11.3 12.9 0.00 0.05 0.05 93 1007.0
20260505184212 10 351 6.4 14.5 0.00 0.05 0.05 93 1007.0
20260505184210 10 58 6.4 12.9 0.00 0.05 0.05 93 1007.0
20260505184202 10 58 1.6 12.9 0.00 0.05 0.05 93 1007.0
20260505184003 10 63 4.8 8.0 0.00 0.05 0.05 93 1007.1
20260505183903 10 17 4.8 8.0 0.00 0.05 0.05 93 1007.0
20260505183703 10 21 1.6 11.3 0.00 0.05 0.05 93 1007.0
20260505183504 10 26 4.8 11.3 0.00 0.05 0.05 93 1006.9
20260505183212 10 14 3.2 11.3 0.00 0.05 0.05 93 1007.0
20260505183210 10 40 6.4 11.3 0.00 0.05 0.05 93 1007.0
20260505183202 10 40 1.6 11.3 0.00 0.05 0.05 93 1007.1
20260505183005 10 19 8.0 11.3 0.00 0.05 0.05 93 1007.0
20260505182802 10 19 1.6 11.3 0.00 0.05 0.05 93 1007.0
20260505182702 10 51 8.0 11.3 0.00 0.05 0.05 93 1007.0
20260505182403 10 19 8.0 11.3 0.00 0.05 0.05 93 1007.1
20260505182203 10 5 3.2 11.3 0.00 0.05 0.05 93 1007.0
20260505182004 10 355 0.0 14.5 0.00 0.05 0.05 93 1007.0
20260505181904 10 22 6.4 14.5 0.00 0.05 0.05 93 1007.0
20260505181703 10 40 6.4 14.5 0.00 0.05 0.05 93 1007.1
20260505181504 10 59 6.4 14.5 0.00 0.05 0.05 93 1007.1
20260505181303 10 21 6.4 14.5 0.00 0.05 0.05 93 1007.1
20260505181212 10 21 3.2 14.5 0.00 0.05 0.05 93 1007.1
20260505181210 10 21 6.4 14.5 0.00 0.05 0.05 91 6.8
20260505181103 10 15 0.0 14.5 0.00 0.05 0.05 93 1007.1
20260505180903 10 22 3.2 14.5 0.00 0.05 0.05 93 1007.1
20260505180703 10 40 8.0 14.5 0.00 0.05 0.05 93 1007.1
20260505180504 10 14 12.9 14.5 0.00 0.05 0.05 93 1007.1
20260505180304 10 24 8.0 12.9 0.00 0.05 0.05 93 1007.1
20260505180212 10 24 4.8 12.9 0.00 0.05 0.05 93 1007.1
20260505180210 10 24 4.8 14.5 0.00 0.05 0.05 90 6.8
20260505175902 10 24 14.5 14.5 0.00 0.05 0.05 93 1007.1
20260505175702 10 9 12.9 14.5 0.00 0.05 0.05 93 1007.1
20260505175504 10 27 0.0 14.5 0.00 0.05 0.05 93 1007.2
20260505175403 10 360 4.8 12.9 0.00 0.05 0.05 93 1007.1
20260505175305 10 360 6.4 12.9 0.00 0.05 0.05 93 1007.1
20260505175212 10 39 8.0 14.5 0.00 0.05 0.05 93 1007.2
20260505175210 10 360 6.4 12.9 0.00 0.05 0.05 93 1007.1
20260505175104 10 42 6.4 12.9 0.00 0.05 0.05 92 1007.2
20260505174902 10 23 3.2 12.9 0.00 0.05 0.05 92 1007.1
20260505174802 10 9 0.0 8.0 0.00 0.05 0.05 92 1007.2
20260505174505 10 360 0.0 12.9 0.00 0.05 0.05 92 1007.2
20260505174302 10 360 1.6 12.9 0.00 0.05 0.05 92 1007.2
20260505174210 10 26 4.8 12.9 0.00 0.05 0.05 92 1007.2
20260505174102 10 24 6.4 12.9 0.00 0.05 0.05 92 1007.2
20260505173802 10 27 12.9 12.9 0.00 0.05 0.05 92 1007.3
20260505173603 10 17 6.4 12.9 0.00 0.05 0.05 92 1007.2
20260505173403 10 24 8.0 11.3 0.00 0.05 0.05 92 1007.3
20260505173212 10 24 4.8 12.9 0.00 0.05 0.05 92 1007.3
20260505173210 10 10 4.8 12.9 0.00 0.05 0.05 92 1007.3
20260505173203 10 10 6.4 12.9 0.00 0.05 0.05 92 1007.3
20260505172903 10 30 4.8 12.9 0.00 0.05 0.05 92 1007.3
20260505172603 10 34 4.8 8.0 0.00 0.05 0.05 92 1007.3
20260505172402 10 5 3.2 8.0 0.00 0.05 0.05 92 1007.2
20260505172210 10 5 4.8 8.0 0.00 0.05 0.05 90 7.0
20260505172202 10 5 4.8 8.0 0.00 0.05 0.05 92 1007.2
20260505172004 10 5 3.2 8.0 0.00 0.05 0.05 92 1007.2
20260505171802 10 355 3.2 6.4 0.00 0.05 0.05 92 1007.3
20260505171603 10 26 4.8 6.4 0.00 0.05 0.05 92 1007.3
20260505171403 10 19 3.2 9.7 0.00 0.05 0.05 92 1007.3
20260505171210 10 24 3.2 9.7 0.00 0.05 0.05 92 1007.3
20260505171203 10 34 3.2 11.3 0.00 0.05 0.05 92 1007.3
20260505171103 10 36 6.4 11.3 0.00 0.05 0.05 92 1007.4
20260505170804 10 39 4.8 11.3 0.00 0.05 0.05 92 1007.3
20260505170603 10 26 0.0 11.3 0.00 0.05 0.05 92 1007.4
20260505170302 10 26 6.4 11.3 0.00 0.05 0.05 92 1007.3
20260505170212 10 23 4.8 8.0 0.00 0.05 0.05 92 1007.3
20260505170210 10 5 8.0 8.0 0.00 0.05 0.05 92 1007.3
20260505170005 11 35 1.6 6.4 0.00 0.05 0.05 92 1007.4
20260505165803 11 349 0.0 6.4 0.00 0.05 0.05 92 1007.4
20260505165603 11 22 1.6 8.0 0.00 0.05 0.05 92 1007.4
20260505165205 11 13 1.6 6.4 0.00 0.05 0.05 92 1007.4
20260505165004 11 21 16.1 16.1 0.00 0.05 0.05 92 1007.3
20260505164703 11 34 6.4 16.1 0.00 0.05 0.05 92 1007.3
20260505164402 11 24 3.2 8.0 0.00 0.05 0.05 92 1007.3
20260505164202 11 9 4.8 12.9 0.00 0.05 0.05 92 1007.3
20260505164004 11 20 8.0 12.9 0.00 0.05 0.05 92 1007.3
20260505163903 11 26 8.0 12.9 0.00 0.05 0.05 92 1007.4
20260505163702 11 24 1.6 12.9 0.00 0.05 0.05 92 1007.4
20260505163503 11 26 6.4 12.9 0.00 0.05 0.05 92 1007.5
20260505163303 11 38 8.0 8.0 0.00 0.05 0.05 92 1007.4
20260505163210 11 19 8.0 14.5 0.00 0.05 0.05 89 7.1
20260505163104 11 13 4.8 14.5 0.00 0.05 0.05 92 1007.4
20260505162903 11 9 4.8 14.5 0.00 0.05 0.05 92 1007.5
20260505162402 11 21 4.8 17.7 0.00 0.05 0.05 92 1007.3
20260505162210 11 20 9.7 17.7 0.00 0.05 0.05 92 1007.3
20260505162203 11 20 11.3 17.7 0.00 0.05 0.05 92 1007.3
20260505162103 11 9 11.3 17.7 0.00 0.05 0.05 92 1007.3
20260505162004 11 9 6.4 8.0 0.00 0.05 0.05 92 1007.4
20260505161805 11 19 3.2 9.7 0.00 0.05 0.05 92 1007.3
20260505161703 11 324 4.8 9.7 0.00 0.05 0.05 91 1007.4
20260505161402 11 37 4.8 9.7 0.00 0.05 0.05 91 1007.4
20260505161210 11 44 3.2 9.7 0.00 0.05 0.05 89 7.0
20260505161203 11 23 3.2 12.9 0.00 0.05 0.05 91 1007.4
20260505161004 11 38 3.2 12.9 0.00 0.05 0.05 91 1007.3
20260505160903 11 360 3.2 12.9 0.00 0.05 0.05 91 1007.4
20260505160802 11 14 1.6 9.7 0.00 0.05 0.05 91 1007.4
20260505160504 11 30 1.6 9.7 0.00 0.05 0.05 92 1007.4
20260505160302 11 34 4.8 9.7 0.00 0.05 0.05 91 1007.5
20260505160210 11 34 3.2 12.9 0.00 0.05 0.05 91 1007.5
20260505160203 11 20 1.6 12.9 0.00 0.05 0.05 91 1007.4
20260505153303 11 42 9.7 16.1 0.00 0.05 0.05 91 1007.5
20260505153210 11 15 6.4 14.5 0.00 0.05 0.05 91 1007.5
20260505153104 11 15 0.0 14.5 0.00 0.05 0.05 91 1007.5
20260505152803 11 5 8.0 14.5 0.00 0.05 0.05 91 1007.5
20260505152702 11 336 8.0 14.5 0.00 0.05 0.05 91 1007.5
20260505152505 11 5 1.6 16.1 0.00 0.05 0.05 91 1007.6
20260505152304 11 20 3.2 16.1 0.00 0.05 0.05 91 1007.5
20260505152210 11 348 12.9 14.5 0.00 0.05 0.05 91 1007.5
20260505152103 11 42 9.7 16.1 0.00 0.05 0.05 91 1007.5
20260505151903 11 22 3.2 14.5 0.00 0.05 0.05 91 1007.5
20260505151702 11 5 4.8 14.5 0.00 0.05 0.05 91 1007.5
20260505151602 11 341 6.4 14.5 0.00 0.05 0.05 91 1007.5
20260505151402 11 49 1.6 14.5 0.00 0.05 0.05 91 1007.5
20260505151210 11 24 4.8 14.5 0.00 0.05 0.05 88 7.2
20260505151203 11 47 6.4 11.3 0.00 0.05 0.05 91 1007.6
20260505151004 11 348 8.0 12.9 0.00 0.05 0.05 91 1007.6
20260505150802 11 360 6.4 12.9 0.00 0.05 0.05 90 1007.6
20260505150604 11 30 6.4 12.9 0.00 0.05 0.05 90 1007.6
20260505150402 11 336 3.2 8.0 0.00 0.05 0.05 91 1007.7
20260505150210 11 355 9.7 17.7 0.00 0.05 0.05 88 7.3
20260505150203 11 34 0.0 12.9 0.00 0.05 0.05 90 1007.6
20260505140404 12 29 4.8 11.3 0.00 0.05 0.05 90 1007.7
20260505140104 12 25 0.0 11.3 0.00 0.05 0.05 91 1007.7
20260505130303 12 16 8.0 12.9 0.00 0.05 0.05 90 1008.2
20260505124803 12 38 6.4 17.7 0.00 0.05 0.05 90 1008.3
20260505124703 12 55 9.7 17.7 0.00 0.05 0.05 90 1008.3
20260505124505 12 27 0.0 17.7 0.00 0.05 0.05 90 1008.3
20260505124403 12 27 4.8 17.7 0.00 0.05 0.05 90 1008.3
20260505124303 12 27 8.0 17.7 0.00 0.05 0.05 90 1008.3
20260505124212 12 355 6.4 17.7 0.00 0.05 0.05 90 1008.2
20260505124210 12 27 4.8 17.7 0.00 0.05 0.05 90 1008.3
20260505124203 12 355 9.7 17.7 0.00 0.05 0.05 90 1008.2
20260505123903 12 9 1.6 14.5 0.00 0.05 0.05 90 1008.2
20260505123802 12 34 3.2 9.7 0.00 0.05 0.05 90 1008.3
20260505123703 12 60 4.8 9.7 0.00 0.05 0.05 90 1008.2
20260505123504 12 24 3.2 4.8 0.00 0.05 0.05 90 1008.3
20260505123402 12 22 1.6 4.8 0.00 0.05 0.05 90 1008.3
20260505123302 12 13 3.2 4.8 0.00 0.05 0.05 90 1008.3
20260505123212 12 13 3.2 11.3 0.00 0.05 0.05 90 1008.3
20260505123210 12 13 1.6 4.8 0.00 0.05 0.05 90 1008.3
20260505122903 12 22 3.2 3.2 0.00 0.05 0.05 90 1008.3
20260505122704 12 15 0.0 14.5 0.00 0.05 0.05 90 1008.4
20260505122504 12 15 8.0 14.5 0.00 0.05 0.05 90 1008.4
20260505122210 12 34 1.6 14.5 0.00 0.05 0.05 91 1008.4
20260505122003 12 13 8.0 14.5 0.00 0.05 0.05 91 1008.4
20260505121902 12 26 1.6 14.5 0.00 0.05 0.05 90 1008.4
20260505121703 12 19 4.8 11.3 0.00 0.05 0.05 91 1008.4
20260505121509 12 31 6.4 12.9 0.00 0.05 0.05 91 1008.4
20260505121214 12 38 4.8 16.1 0.00 0.05 0.05 90 1008.4
20260505121210 12 20 4.8 14.5 0.00 0.05 0.05 91 1008.4
20260505121202 12 38 4.8 16.1 0.00 0.05 0.05 90 1008.4
20260505121005 12 37 4.8 16.1 0.00 0.05 0.05 90 1008.4
20260505120903 12 38 6.4 16.1 0.00 0.05 0.05 91 1008.4
20260505120703 12 23 0.0 9.7 0.00 0.05 0.05 90 1008.4
20260505120504 12 22 3.2 14.5 0.00 0.05 0.05 91 1008.4
20260505120302 12 35 3.2 14.5 0.00 0.05 0.05 91 1008.4
20260505120214 12 53 1.6 12.9 0.00 0.05 0.05 90 1008.4
20260505120210 12 15 3.2 14.5 0.00 0.05 0.05 90 1008.4
20260505120202 12 15 3.2 14.5 0.00 0.05 0.05 90 1008.4
20260505120005 12 22 1.6 8.0 0.00 0.05 0.05 90 1008.4
20260505115902 12 30 4.8 16.1 0.00 0.05 0.05 90 1008.4
20260505115703 12 19 6.4 16.1 0.00 0.05 0.05 90 1008.4
20260505115504 12 40 1.6 16.1 0.00 0.05 0.05 90 1008.4
20260505115403 13 360 1.6 12.9 0.00 0.05 0.05 90 1008.4
20260505115214 13 360 4.8 17.7 0.00 0.05 0.05 90 1008.4
20260505115209 13 360 1.6 12.9 0.00 0.05 0.05 90 1008.4
20260505115202 13 9 1.6 17.7 0.00 0.05 0.05 90 1008.4
20260505114902 13 35 12.9 17.7 0.00 0.05 0.05 89 1008.5
20260505114702 13 18 1.6 17.7 0.00 0.05 0.05 90 1008.5
20260505114603 13 22 0.0 8.0 0.00 0.05 0.05 90 1008.5
20260505114210 13 19 1.6 6.4 0.00 0.05 0.05 90 1008.5
20260505114203 13 19 3.2 9.7 0.00 0.05 0.05 91 1008.5
20260505114104 13 38 3.2 9.7 0.00 0.05 0.05 90 1008.5
20260505114003 13 346 1.6 12.9 0.00 0.05 0.05 90 1008.5
20260505113802 13 355 4.8 12.9 0.00 0.05 0.05 90 1008.5
20260505113607 13 11 3.2 12.9 0.00 0.05 0.05 90 1008.4
20260505113402 13 15 0.0 4.8 0.00 0.05 0.05 90 1008.4
20260505113210 13 20 3.2 14.5 0.00 0.05 0.05 90 1008.5
20260505113203 13 9 1.6 12.9 0.00 0.05 0.05 90 1008.4
20260505113005 13 9 8.0 12.9 0.00 0.05 0.05 90 1008.4
20260505112902 13 9 8.0 16.1 0.00 0.05 0.05 90 1008.5
20260505112704 13 15 8.0 16.1 0.00 0.05 0.05 90 1008.4
20260505112504 13 47 0.0 16.1 0.00 0.05 0.05 91 1008.5
20260505112403 13 360 6.4 12.9 0.00 0.05 0.05 91 1008.4
20260505112216 13 12 4.8 17.7 0.00 0.05 0.05 91 1008.4
20260505112210 13 12 4.8 17.7 0.00 0.05 0.05 91 1008.4
20260505112203 13 28 4.8 16.1 0.00 0.05 0.05 91 1008.5
20260505112004 13 19 0.0 16.1 0.00 0.05 0.05 91 1008.5
20260505111902 13 22 9.7 16.1 0.00 0.05 0.05 91 1008.5
20260505111604 13 15 8.0 16.1 0.00 0.05 0.05 91 1008.5
20260505111504 13 32 9.7 16.1 0.00 0.05 0.05 91 1008.5
20260505111403 13 355 12.9 16.1 0.00 0.05 0.05 91 1008.5
20260505111216 13 46 9.7 16.1 0.00 0.05 0.05 91 1008.5
20260505111212 13 355 12.9 16.1 0.00 0.05 0.05 91 1008.5
20260505111210 13 355 9.7 16.1 0.00 0.05 0.05 91 1008.5
20260505111103 13 15 3.2 14.5 0.00 0.05 0.05 91 1008.5
20260505110903 13 11 8.0 9.7 0.00 0.05 0.05 91 1008.6
20260505110704 13 26 1.6 9.7 0.00 0.05 0.05 92 1008.5
20260505110503 12 47 12.9 12.9 0.00 0.05 0.05 92 1008.6
20260505110210 12 28 8.0 12.9 0.00 0.05 0.05 92 1008.6
20260505110203 12 28 6.4 12.9 0.00 0.05 0.05 92 1008.6
20260505102212 13 34 8.0 17.7 0.00 0.05 0.05 92 1008.6
20260505102210 13 344 8.0 17.7 0.00 0.05 0.05 92 1008.5
20260505102203 13 344 8.0 17.7 0.00 0.05 0.05 92 1008.5
20260505102103 13 13 12.9 17.7 0.00 0.05 0.05 92 1008.7
20260505101903 13 24 8.0 17.7 0.00 0.05 0.05 92 1008.5
20260505101505 13 32 0.0 14.5 0.00 0.05 0.05 92 1008.6
20260505101402 13 22 9.7 14.5 0.00 0.05 0.05 92 1008.6
20260505101302 13 22 4.8 14.5 0.00 0.05 0.05 92 1008.6
20260505101212 13 33 8.0 17.7 0.00 0.05 0.05 92 1008.6
20260505101210 13 22 9.7 17.7 0.00 0.05 0.05 92 1008.6
20260505101202 13 350 4.8 17.7 0.00 0.05 0.05 92 1008.7
20260505100904 13 18 14.5 17.7 0.00 0.05 0.05 92 1008.6
20260505100803 13 28 6.4 17.7 0.00 0.05 0.05 92 1008.6
20260505100702 13 28 4.8 12.9 0.00 0.05 0.05 92 1008.6
20260505100504 13 55 8.0 14.5 0.00 0.05 0.05 93 1008.7
20260505100403 13 30 12.9 14.5 0.00 0.05 0.05 93 1008.6
20260505100302 13 33 3.2 16.1 0.00 0.05 0.05 92 1008.7
20260505100211 13 24 9.7 16.1 0.00 0.03 0.03 89 8.3
20260505100209 13 33 6.4 16.1 0.00 0.05 0.05 92 1008.7
20260505100004 13 5 16.1 16.1 0.00 0.05 0.05 92 1008.6
20260505095802 13 40 3.2 16.1 0.00 0.05 0.05 92 1008.6
20260505095604 13 360 9.7 14.5 0.00 0.05 0.05 92 1008.7
20260505095403 13 22 6.4 12.9 0.00 0.05 0.05 92 1008.7
20260505095304 13 23 4.8 14.5 0.00 0.05 0.05 92 1008.7
20260505095104 13 24 0.0 14.5 0.00 0.05 0.05 91 1008.6
20260505095005 13 360 8.0 14.5 0.00 0.05 0.05 91 1008.7
20260505094803 13 13 3.2 14.5 0.00 0.05 0.05 91 1008.6
20260505094702 13 28 3.2 14.5 0.00 0.05 0.05 91 1008.7
20260505094505 13 20 0.0 12.9 0.00 0.05 0.05 91 1008.7
20260505094404 13 37 4.8 11.3 0.00 0.05 0.05 91 1008.8
20260505094211 13 40 1.6 12.9 0.00 0.03 0.03 88 8.5
20260505094203 13 37 6.4 11.3 0.00 0.05 0.05 91 1008.8
20260505094102 13 24 4.8 11.3 0.00 0.05 0.05 91 1008.8
20260505094006 13 24 4.8 9.7 0.00 0.05 0.05 91 1008.7
20260505093802 13 360 0.0 16.1 0.00 0.05 0.05 91 1008.8
20260505093703 13 360 3.2 16.1 0.00 0.05 0.05 91 1008.7
20260505093504 13 355 3.2 16.1 0.00 0.05 0.05 91 1008.7
20260505093403 13 355 3.2 16.1 0.00 0.05 0.05 91 1008.7
20260505093302 13 24 3.2 16.1 0.00 0.05 0.05 91 1008.7
20260505093212 13 24 8.0 16.1 0.00 0.05 0.05 91 1008.7
20260505093210 13 42 12.9 16.1 0.00 0.05 0.05 91 1008.7
20260505093102 13 36 0.0 16.1 0.00 0.05 0.05 91 1008.7
20260505092902 13 42 12.9 16.1 0.00 0.05 0.05 90 1008.8
20260505092702 13 42 11.3 16.1 0.00 0.05 0.05 90 1008.8
20260505092402 13 26 4.8 12.9 0.00 0.05 0.05 91 1008.8
20260505092305 13 17 6.4 12.9 0.00 0.05 0.05 90 1008.8
20260505092211 15 17 6.4 16.1 0.00 0.03 0.03 86 8.5
20260505092209 13 17 4.8 12.9 0.00 0.05 0.05 90 1008.8
20260505092104 14 21 0.0 12.9 0.00 0.05 0.05 90 1008.8
20260505092005 14 22 6.4 12.9 0.00 0.05 0.05 90 1008.7
20260505091802 14 54 8.0 12.9 0.00 0.05 0.05 90 1008.7
20260505091603 14 63 1.6 12.9 0.00 0.05 0.05 90 1008.7
20260505091405 14 53 3.2 12.9 0.00 0.05 0.05 89 1008.7
20260505091211 15 30 1.6 12.9 0.00 0.03 0.03 85 8.4
20260505091208 14 51 8.0 12.9 0.00 0.05 0.05 89 1008.7
20260505091203 14 51 8.0 12.9 0.00 0.05 0.05 89 1008.7
20260505090903 15 24 0.0 8.0 0.00 0.05 0.05 89 1008.7
20260505090703 15 22 1.6 8.0 0.00 0.05 0.05 89 1008.7
20260505090603 15 15 1.6 8.0 0.00 0.05 0.05 89 1008.7
20260505090402 15 15 3.2 8.0 0.00 0.05 0.05 89 1008.7
20260505090303 15 10 1.6 1.6 0.00 0.05 0.05 89 1008.7
20260505090211 15 37 3.2 4.8 0.00 0.03 0.03 86 8.4
20260505090005 15 9 1.6 6.4 0.00 0.05 0.05 89 1008.8
20260505085903 15 9 1.6 6.4 0.00 0.05 0.05 90 1008.8
20260505085703 15 5 3.2 6.4 0.00 0.05 0.05 89 1008.8
20260505085602 15 9 1.6 6.4 0.00 0.05 0.05 89 1008.7
20260505085212 15 9 3.2 6.4 0.00 0.03 0.03 86 8.4
20260505085210 15 9 1.6 6.4 0.00 0.05 0.05 89 1008.7
20260505085202 15 9 1.6 6.4 0.00 0.05 0.05 89 1008.7
20260505085006 15 5 0.0 12.9 0.00 0.05 0.05 89 1008.7
20260505084903 15 360 1.6 12.9 0.00 0.05 0.05 90 1008.7
20260505084603 15 5 4.8 12.9 0.00 0.05 0.05 90 1008.7
20260505084403 15 22 0.0 4.8 0.00 0.05 0.05 90 1008.7
20260505084216 15 23 3.2 6.4 0.00 0.03 0.03 88 8.4
20260505084211 14 20 0.0 6.4 0.00 0.05 0.05 90 1008.7
20260505084003 14 21 1.6 6.4 0.00 0.05 0.05 90 1008.7
20260505083903 14 21 1.6 6.4 0.00 0.05 0.05 90 1008.7
20260505083803 14 20 6.4 6.4 0.00 0.05 0.05 90 1008.7
20260505083603 14 13 0.0 6.4 0.00 0.05 0.05 90 1008.7
20260505083504 14 17 0.0 8.0 0.00 0.05 0.05 90 1008.7
20260505083202 14 26 4.8 8.0 0.00 0.05 0.05 89 1008.7
20260505083103 14 24 3.2 8.0 0.00 0.05 0.05 89 1008.7
20260505082905 15 10 6.4 8.0 0.00 0.05 0.05 89 1008.7
20260505082702 15 10 3.2 8.0 0.00 0.05 0.05 89 1008.7
20260505082504 15 24 0.0 8.0 0.00 0.05 0.05 89 1008.7
20260505082304 15 22 1.6 3.2 0.00 0.05 0.05 88 1008.7
20260505082212 15 17 3.2 4.8 0.00 0.05 0.05 88 1008.7
20260505082210 15 16 1.6 4.8 0.00 0.05 0.05 88 1008.7
20260505082102 15 16 1.6 6.4 0.00 0.05 0.05 89 1008.7
20260505082005 15 15 1.6 6.4 0.00 0.05 0.05 89 1008.7
20260505081903 15 15 1.6 6.4 0.00 0.05 0.05 90 1008.7
20260505081702 15 15 4.8 6.4 0.00 0.05 0.05 90 1008.7
20260505081504 15 33 4.8 6.4 0.00 0.05 0.05 90 1008.7
20260505081402 14 38 1.6 6.4 0.00 0.05 0.05 90 1008.7
20260505081212 15 51 1.6 3.2 0.00 0.05 0.05 90 1008.7
20260505081210 14 51 0.0 3.2 0.00 0.05 0.05 90 1008.7
20260505081104 14 51 0.0 3.2 0.00 0.05 0.05 89 1008.7
20260505081004 14 51 0.0 3.2 0.00 0.05 0.05 90 1008.7
20260505080903 14 51 1.6 3.2 0.00 0.05 0.05 90 1008.8
20260505080802 14 51 1.6 3.2 0.00 0.05 0.05 90 1008.8
20260505080703 14 51 1.6 3.2 0.00 0.05 0.05 91 1008.7
20260505080603 14 51 0.0 3.2 0.00 0.05 0.05 91 1008.8
20260505080403 14 45 0.0 3.2 0.00 0.05 0.05 90 1008.7
20260505080303 14 51 1.6 3.2 0.00 0.05 0.05 90 1008.7
20260505080203 14 51 1.6 3.2 0.00 0.05 0.05 90 1008.8
20260505075902 14 51 0.0 3.2 0.00 0.05 0.05 90 1008.8
20260505075704 14 51 3.2 3.2 0.00 0.05 0.05 91 1008.8
20260505075304 14 46 0.0 3.2 0.00 0.05 0.05 91 1008.9
20260505075211 14 46 0.0 4.8 0.00 0.03 0.03 90 8.5
20260505075209 14 46 0.0 3.2 0.00 0.05 0.05 91 1008.9
20260505075103 14 46 0.0 3.2 0.00 0.05 0.05 91 1008.9
20260505074903 14 46 0.0 1.6 0.00 0.05 0.05 91 1008.9
20260505074603 14 46 0.0 3.2 0.00 0.05 0.05 91 1008.9
20260505074504 14 46 1.6 3.2 0.00 0.05 0.05 92 1008.9
20260505074303 14 46 1.6 3.2 0.00 0.05 0.05 92 1008.9
20260505074211 14 46 0.0 3.2 0.00 0.05 0.05 92 1008.9
20260505074004 13 46 1.6 6.4 0.00 0.05 0.05 92 1008.9
20260505073903 13 46 3.2 6.4 0.00 0.05 0.05 92 1008.9
20260505073802 13 46 3.2 6.4 0.00 0.05 0.05 92 1008.9
20260505073602 13 46 3.2 4.8 0.00 0.05 0.05 92 1008.9
20260505073504 13 47 0.0 4.8 0.00 0.05 0.05 92 1008.9
20260505073403 13 47 1.6 3.2 0.00 0.05 0.05 92 1008.9
20260505073303 13 47 1.6 3.2 0.00 0.05 0.05 92 1008.9
20260505073211 13 47 1.6 3.2 0.00 0.03 0.03 92 8.6
20260505073004 13 47 3.2 3.2 0.00 0.05 0.05 92 1008.9
20260505072903 13 47 0.0 3.2 0.00 0.05 0.05 92 1008.9
20260505072702 13 47 0.0 3.2 0.00 0.05 0.05 92 1009.0
20260505072504 13 47 1.6 3.2 0.00 0.05 0.05 93 1009.0
20260505072404 13 47 0.0 3.2 0.00 0.05 0.05 93 1008.9
20260505072304 13 47 0.0 3.2 0.00 0.05 0.05 93 1008.9
20260505072202 13 47 0.0 3.2 0.00 0.05 0.05 93 1008.9
20260505072103 13 47 0.0 4.8 0.00 0.05 0.05 93 1008.8
20260505071902 13 47 1.6 4.8 0.00 0.05 0.05 93 1008.9
20260505071703 13 47 1.6 6.4 0.00 0.05 0.05 93 1008.8
20260505071504 13 48 0.0 6.4 0.00 0.05 0.05 93 1008.9
20260505071402 13 48 3.2 6.4 0.00 0.05 0.05 93 1008.9
20260505071213 13 59 0.0 4.8 0.00 0.05 0.05 93 1008.9
20260505071211 13 48 3.2 6.4 0.00 0.03 0.03 93 8.7
20260505071209 13 59 0.0 4.8 0.00 0.05 0.05 93 1008.9
20260505071203 13 59 1.6 4.8 0.00 0.05 0.05 93 1008.9
20260505071004 13 59 3.2 4.8 0.00 0.05 0.05 93 1008.9
20260505070903 13 61 1.6 4.8 0.00 0.05 0.05 93 1008.9
20260505070802 13 61 1.6 4.8 0.00 0.05 0.05 93 1008.9
20260505070703 13 167 1.6 1.6 0.00 0.05 0.05 93 1008.9
20260505070503 13 167 0.0 1.6 0.03 0.05 0.05 93 1008.9
20260505070403 13 167 1.6 1.6 0.03 0.05 0.05 93 1008.9
20260505070303 13 167 0.0 1.6 0.03 0.05 0.05 93 1008.8
20260505070202 13 167 1.6 1.6 0.03 0.05 0.05 93 1008.8
20260505070005 13 167 0.0 1.6 0.03 0.05 0.05 93 1008.9
20260505065902 13 167 0.0 1.6 0.03 0.05 0.05 93 1008.8
20260505065504 13 167 0.0 1.6 0.03 0.05 0.05 93 1008.9
20260505065403 13 167 0.0 1.6 0.03 0.05 0.05 94 1008.9
20260505065303 13 167 0.0 1.6 0.03 0.05 0.05 93 1009.0
20260505065212 13 167 0.0 1.6 0.03 0.05 0.05 93 1009.0
20260505065209 13 167 0.0 1.6 0.03 0.05 0.05 93 1009.0
20260505065203 13 167 0.0 1.6 0.03 0.05 0.05 93 1009.0
20260505065102 13 167 0.0 1.6 0.03 0.05 0.05 93 1008.9
20260505065004 13 167 0.0 1.6 0.03 0.05 0.05 93 1009.0
20260505064902 13 167 1.6 1.6 0.03 0.05 0.05 94 1009.0
20260505064702 13 167 0.0 4.8 0.03 0.05 0.05 94 1009.0
20260505064505 13 167 0.0 4.8 0.03 0.05 0.05 94 1009.0
20260505064402 13 167 0.0 4.8 0.03 0.05 0.05 94 1009.1
20260505064302 13 167 0.0 1.6 0.03 0.05 0.05 94 1009.0
20260505064213 13 167 0.0 1.6 0.03 0.05 0.05 94 1009.0
20260505064211 12 167 0.0 1.6 0.00 0.03 0.03 93 8.7
20260505064209 13 167 0.0 4.8 0.03 0.05 0.05 94 1009.0
20260505064203 13 167 1.6 1.6 0.03 0.05 0.05 94 1009.0
20260505064103 13 167 0.0 4.8 0.03 0.05 0.05 94 1009.0
20260505064004 13 167 1.6 4.8 0.03 0.05 0.05 94 1009.1
20260505063903 13 167 0.0 4.8 0.03 0.05 0.05 94 1009.1
20260505063802 13 167 3.2 4.8 0.03 0.05 0.05 94 1009.0
20260505063503 13 167 1.6 4.8 0.03 0.05 0.05 94 1009.1
20260505063402 12 167 0.0 1.6 0.03 0.05 0.05 94 1009.1
20260505063212 12 167 0.0 1.6 0.03 0.05 0.05 94 1009.1
20260505063210 12 167 0.0 1.6 0.03 0.05 0.05 94 1009.1
20260505063202 12 167 0.0 1.6 0.03 0.05 0.05 94 1009.1
20260505062904 12 167 0.0 1.6 0.03 0.05 0.05 94 1009.1
20260505062603 12 167 0.0 1.6 0.03 0.05 0.05 94 1009.2
20260505062403 12 167 0.0 1.6 0.03 0.05 0.05 94 1009.2
20260505062304 12 167 0.0 1.6 0.03 0.05 0.05 94 1009.2
20260505062202 12 167 0.0 1.6 0.03 0.05 0.05 94 1009.2
20260505062004 12 167 0.0 1.6 0.03 0.05 0.05 94 1009.2
20260505061703 12 167 0.0 1.6 0.03 0.05 0.05 94 1009.2
20260505061603 12 167 0.0 1.6 0.03 0.05 0.05 94 1009.2
20260505061504 12 167 0.0 1.6 0.03 0.05 0.05 94 1009.2
20260505061404 12 167 0.0 1.6 0.03 0.05 0.05 94 1009.2
20260505061212 12 167 0.0 1.6 0.03 0.05 0.05 94 1009.2
20260505061209 12 167 0.0 1.6 0.03 0.05 0.05 94 1009.2
20260505061203 12 167 1.6 1.6 0.03 0.05 0.05 94 1009.2
20260505061103 12 167 1.6 4.8 0.03 0.05 0.05 94 1009.2
20260505060803 12 167 0.0 4.8 0.03 0.05 0.05 94 1009.2
20260505060702 12 167 1.6 4.8 0.03 0.05 0.05 94 1009.2
20260505060403 12 167 0.0 4.8 0.00 0.03 0.03 94 1009.2
20260505060303 12 167 1.6 4.8 0.00 0.03 0.03 94 1009.3
20260505060211 12 167 0.0 4.8 0.00 0.03 0.03 95 1009.2
20260505060104 12 167 0.0 4.8 0.00 0.03 0.03 95 1009.3
20260505060005 12 167 1.6 4.8 0.00 0.03 0.03 95 1009.3
20260505055904 12 167 1.6 4.8 0.00 0.03 0.03 95 1009.2
20260505055802 12 167 0.0 1.6 0.00 0.03 0.03 95 1009.2
20260505055603 12 167 0.0 1.6 0.00 0.03 0.03 94 1009.2
20260505055304 12 167 0.0 1.6 0.00 0.03 0.03 95 1009.2
20260505055212 12 167 0.0 1.6 0.00 0.03 0.03 95 1009.2
20260505055210 12 167 0.0 1.6 0.00 0.03 0.03 95 1009.3
20260505055203 12 167 0.0 1.6 0.00 0.03 0.03 95 1009.2
20260505055006 12 167 1.6 1.6 0.00 0.03 0.03 95 1009.2
20260505054802 12 157 0.0 1.6 0.00 0.03 0.03 95 1009.2